Location: Archemont
(49.1579°N, 1.7598°E)
Time: 11:45:46
(UTC+00:00)

Cosmos 1943 Rocket - Pass Details

Date: 03 February 2023
Orbit: 811 x 844 km, 71.0° (Epoch: 29 March)

Event Time Altitude Azimuth Distance (km) Brightness Sun altitude
Rises 20:35:43 0° 333° (NNW) 3,414 5.9 -36.4°
Reaches altitude 10° 20:38:14 10° 337° (NNW) 2,475 5.0 -36.8°
Enters shadow 20:39:55 20° 342° (NNW) 1,870 4.2 -37.0°
